This is the latest recevied weather packets stored in our database for station/object KD8OZS. If no packets are shown the sender has not sent any weather packets the latest 10 day(s).
| Time | Temp. | Humidity | Pressure | Rain* | Wind** | Luminosity | Snow |
|---|---|---|---|---|---|---|---|
| 1787522916 | 21.67° C | 77% | 1006.6 hPa | 0 mm | - | 92 W/m² | - |
| 1787522612 | 21.11° C | 77% | 1006.5 hPa | 0 mm | - | 117 W/m² | - |
| 1787522307 | 21.11° C | 79% | 1006.3 hPa | 0 mm | - | 108 W/m² | - |
| 1787522002 | 21.11° C | 74% | 1006.5 hPa | 0 mm | - | 68 W/m² | - |
| 1787521701 | 21.11° C | 70% | 1006.5 hPa | 0 mm | - | 64 W/m² | - |
| 1787521395 | 21.67° C | 69% | 1006.8 hPa | 0 mm | - | 72 W/m² | - |
| 1787521090 | 23.33° C | 65% | 1006.6 hPa | 0 mm | - | 67 W/m² | - |
| 1787520785 | 24.44° C | 64% | 1006.7 hPa | 0 mm | - | 245 W/m² | - |
| 1787520481 | 23.89° C | 63% | 1006.7 hPa | 0 mm | - | 280 W/m² | - |
| 1787520177 | 23.89° C | 64% | 1006.7 hPa | 0 mm | - | 281 W/m² | - |
| 1787519872 | 23.89° C | 65% | 1006.8 hPa | 0 mm | - | 306 W/m² | - |
| 1787519568 | 23.33° C | 63% | 1007 hPa | 0 mm | - | 330 W/m² | - |
| 1787519267 | 23.33° C | 64% | 1006.9 hPa | 0 mm | - | 367 W/m² | - |
| 1787518962 | 22.22° C | 72% | 1007.1 hPa | 0 mm | - | 439 W/m² | - |
| 1787518658 | 21.67° C | 76% | 1006.9 hPa | 0 mm | - | 200 W/m² | - |
| 1787518353 | 20.56° C | 77% | 1006.9 hPa | 0 mm | - | 115 W/m² | - |
| 1787518048 | 20.56° C | 78% | 1007 hPa | 0 mm | - | 80 W/m² | - |
| 1787517744 | 21.11° C | 75% | 1006.9 hPa | 0 mm | - | 49 W/m² | - |
| 1787517440 | 20.56° C | 70% | 1006.8 hPa | 0 mm | - | 87 W/m² | - |
| 1787517136 | 21.11° C | 74% | 1006.9 hPa | 0 mm | - | 76 W/m² | - |
| 1787516835 | 21.11° C | 73% | 1007 hPa | 0 mm | - | 84 W/m² | - |
| 1787516530 | 21.11° C | 72% | 1007.1 hPa | 0 mm | - | 202 W/m² | - |
| 1787516225 | 21.11° C | 73% | 1006.9 hPa | 0 mm | - | 104 W/m² | - |
| 1787515920 | 21.11° C | 71% | 1006.9 hPa | 0 mm | - | 66 W/m² | - |
| 1787515616 | 21.67° C | 70% | 1006.8 hPa | 0 mm | - | 85 W/m² | - |
* Rain latest hour (hover to see other rain measurements)
** Current wind speed in m/s (hover to see current wind gust speed)